Location: Unspecified
(43.1763°N, 79.4719°W)
Time: 04:37:29
(UTC-04:00)

Cosmos 1674 - Visible Passes

Search period start: 21 October 2017 00:00
Search period end: 31 October 2017 00:00
Orbit: 497 x 523 km, 82.5° (Epoch: 20 October)

Date Brightness Start Highest point End Pass type
(mag) Time Alt. Az. Time Alt. Az. Time Alt. Az.
21 Oct 2.6 06:39:32 10° S 06:43:15 88° W 06:47:00 10° N visible
22 Oct 2.9 06:22:45 10° S 06:26:27 70° E 06:30:11 10° NNE visible
23 Oct 3.4 06:06:03 10° S 06:09:40 53° E 06:13:19 10° NNE visible
24 Oct 4.0 05:49:23 10° SSE 05:52:53 40° E 05:56:24 10° NNE visible
25 Oct 4.5 05:32:48 10° SSE 05:36:07 31° E 05:39:27 10° NNE visible
25 Oct 4.2 07:09:20 10° WSW 07:11:48 17° WNW 07:14:16 10° NNW visible
26 Oct 4.9 05:16:18 10° SE 05:19:21 24° E 05:22:26 10° NE visible
26 Oct 3.9 06:52:02 10° SW 06:54:54 21° WNW 06:57:48 10° NNW visible
27 Oct 5.3 05:01:13 16° ESE 05:02:36 19° E 05:05:20 10° NE visible
27 Oct 3.6 06:36:17 18° WSW 06:38:01 26° WNW 06:41:13 10° NNW visible
28 Oct 5.7 04:46:37 15° ENE 04:46:37 15° ENE 04:48:07 10° NE visible
28 Oct 3.4 06:21:38 32° WNW 06:21:38 32° WNW 06:24:35 10° N visible
29 Oct 4.2 06:06:19 22° NNW 06:06:19 22° NNW 06:07:53 10° N visible
30 Oct 5.1 05:50:41 13° N 05:50:41 13° N 05:51:09 10° N visible
